Regional Weather Roundup
Issued by NWS

Home | Current Version | Previous Version | Text Only | Print | Product List | Glossary On
Versions: 1 2 3 4 5 6 7 8 9 10 11 12 13 14 15 16 17 18 19 20 21 22 23 24 25 26 27 28 29 30 31 32 33 34 35 36 37 38 39 40 41 42 43 44 45 46 47 48 49 50
000
ASUS43 KLMK 030010
RWRKY
KENTUCKY REGIONAL WEATHER ROUNDUP
NATIONAL WEATHER SERVICE LOUISVILLE KY
800 PM EDT THU JUL 02 2015

NOTE "FAIR" INDICATES FEW OR NO CLOUDS BELOW 12,000 FEET
WITH NO SIGNIFICANT WEATHER AND/OR OBSTRUCTIONS TO VISIBILITY.

KYZ001>023-026-027-061>063-070>075-030100-
WESTERN AND SOUTH CENTRAL KENTUCKY

CITY           SKY/WX    TMP DP  RH WIND       PRES   REMARKS
PADUCAH        PTSUNNY   82  71  69 N7        29.82S
HENDERSON      PTSUNNY   77  70  78 NE9       29.81S
OWENSBORO      MOSUNNY   80  71  74 NE8       29.83S
HOPKINSVILLE   CLOUDY    78  73  85 SW7       29.83S
BOWLING GREEN  CLOUDY    75  71  87 E7        29.85S
GLASGOW        PTSUNNY   71  70  95 S3        29.86S
$$

KYZ024-025-028>034-038-045-046-053-030100-
NORTH CENTRAL KENTUCKY

CITY           SKY/WX    TMP DP  RH WIND       PRES   REMARKS
LOUISVILLE/SDF LGT RAIN  72  69  90 E6        29.84S
LOUISVILLE/LOU LGT RAIN  73  68  84 S6        29.85R
FORT KNOX      LGT RAIN  79  67  67 CALM      29.84R
$$

KYZ035>037-039>044-047>052-055>060-089>105-030100-
NORTHEAST KENTUCKY

CITY           SKY/WX    TMP DP  RH WIND       PRES   REMARKS
LEXINGTON      MOSUNNY   76  69  79 SE5       29.88R
COVINGTON      LGT RAIN  73  68  84 SE7       29.88S
FRANKFORT      PTSUNNY   76  68  76 E5        29.86R
$$

KYZ054-064>069-076>088-106>120-030100-
SOUTHEAST KENTUCKY

CITY           SKY/WX    TMP DP  RH WIND       PRES   REMARKS
JACKSON        LGT RAIN  71  66  84 CALM      29.91S
LONDON         CLOUDY    77  66  68 S5        29.90S
SOMERSET       MOSUNNY   72  66  83 CALM      29.90R
MIDDLESBORO    CLOUDY    73  68  82 CALM      29.93R
MONTICELLO     CLOUDY    71  71 100 CALM      29.90S
$$



USA.gov is the U.S. government's official web portal to all federal, state and local government web resources and services.